Flag for U.S.A. Weather past 2 weeks in New York, New York, U.S.A.

Now
84 °F

Sunny.


Feels Like: 83 °F
Forecast: 62 / 84 °F
Wind: 6 mph from North

Location: New York City - Central Park

Current Time: May 25, 2015 at 5:53:26 PM

Latest Report: May 25, 2015 at 4:51 PM


Visibility: 10 mi

Pressure: 30.15 "Hg

Humidity: 38%

Dew point: 56 °F

Location of New YorkLocation

Historic Weather in New York — Graph

°F

New York temperature yesterday

Maximum temperature yesterday: 81 °F (at 2:51 PM)
Minimum temperature yesterday: 56 °F (at 5:51 AM)
Average temperature yesterday: 68 °F

Past Weeks' High & Low Weather Summary

 TemperatureHumidityPressure
High85 °F (May 12, 1:51 PM)93% (May 16, 11:46 PM)30.42 "Hg (May 16, 11:46 PM)
Low49 °F (May 23, 6:51 AM)17% (May 14, 3:51 PM)29.75 "Hg (May 12, 6:51 PM)
Average66 °F55%30.10 "Hg
* Reported May 10 3:51 PM — May 25 3:51 PM, New York, Weather by CustomWeather, © 2015

Note: Actual official high and low records may vary slightly from our data, if they occured in-between our weather recording intervals... More about our weather records

Advertising

New York weather history for previous 24 hours

 ConditionsComfort  
Time TempWeatherWind HumidityBarometerVisibility
3:51 PM
Mon, May 25
84 °FSunny.10 mph38%30.16 "Hg10 mi
2:51 PM83 °FSunny.3 mph41%30.18 "Hg10 mi
1:51 PM85 °FSunny.N/A40%30.19 "Hg10 mi
12:51 PM84 °FSunny.N/A40%30.21 "Hg10 mi
11:51 AM82 °FSunny.5 mph43%30.23 "Hg10 mi
10:51 AM75 °FSunny.7 mph54%30.25 "Hg10 mi
9:51 AM72 °FSunny.No wind57%30.27 "Hg10 mi
8:51 AM71 °FSunny.6 mph59%30.27 "Hg10 mi
7:51 AM67 °FSunny.No wind63%30.27 "Hg10 mi
6:51 AM66 °FSunny.No wind65%30.27 "Hg10 mi
5:51 AM66 °FClear.3 mph63%30.26 "Hg10 mi
4:51 AM65 °FClear.8 mph66%30.26 "Hg10 mi
3:51 AM65 °FClear.6 mph63%30.25 "Hg10 mi
2:51 AM65 °FClear.6 mph59%30.25 "Hg10 mi
1:51 AM66 °FClear.5 mph56%30.25 "Hg10 mi
12:51 AM68 °FClear.7 mph53%30.25 "Hg10 mi
11:51 PM
Sun, May 24
69 °FClear.3 mph49%30.25 "Hg10 mi
10:51 PM70 °FClear.N/A47%30.26 "Hg10 mi
9:51 PM70 °FClear.No wind49%30.26 "Hg10 mi
8:51 PM69 °FSunny.No wind51%30.24 "Hg10 mi
7:51 PM71 °FSunny.No wind47%30.23 "Hg10 mi
6:51 PM74 °FSunny.No wind43%30.22 "Hg10 mi
5:51 PM75 °FSunny.5 mph39%30.23 "Hg10 mi
Weather by CustomWeather, © 2015

See weather overviewHow to use our weather pages